ONEWEB-0272 (48990 NORAD) Tracking and Keplerian Element Data

This shows tracking and keplerian element data for the satellite.

Feedback or suggestion? Click here.




ElementValue
Catalog48990
NameONEWEB-0272
Epoch Orbit1390
Epoch Day269.25001157
Epoch Year2021
RAAN211.8777
Inclination87.8866
Eccentricity0.0006963
Argument of Perigee355.6079
Mean Anonmoly92.3392
Mean Motion13.46951089
Decay Rate1.4E-07
L11 48990U 21060Z 21269.25001157 .00000014 00000-0 00000+0 0 9994
L22 48990 87.8866 211.8777 0006963 355.6079 92.3392 13.46951089 13904

Live tracking and technical data element details for ONEWEB-0272 (NORAD 48990). ONEWEB-0272 can be tracked NOW for your location showing map with azimuth and elevation plus other details from your city location.

Track the satellite on the map from your city or location and see movement details for azimuth, elevation, latitude, longitude, range, height, and movement on the map or in text.







IsCatalogInMostPopularTable: catalog: 48990, numindb: 17
Update: records affected: 1



GetName: 48990 ONEWEB-0272

Hit Count: updated at: Sun, 26 Sep 2021 16:34:05 GMT